Temp
61 61 61 61 61 61 61 61 60 60 61 61 60 60 60 60 60 59 60 60 60 61 61 60 60 61 55 50 51 63 68 67 63 59 55 52 48 46 42 45 49 46 45 49 48 48 48
61 61 61 61 61 61 61 60 60 60 60 61 60 60 59 59 59 60 59 60 60 60 60 60 61 61 51 42 58 60 61 61 60 56 53 53 50 51 46 44 45 49 46 44 46 46 46
61 61 61 61 61 60 60 60 59 59 60 60 60 59 58 58 59 59 59 59 59 59 59 60 61 58 50 47 58 58 61 58 59 57 51 54 54 50 47 42 44 45 39 40 42 44 43
60 60 60 60 60 60 60 59 59 59 59 59 59 58 58 58 59 58 58 59 59 59 59 59 60 55 45 59 57 59 58 56 58 59 58 57 57 51 47 45 44 38 38 34 41 43 43
60 60 60 60 59 59 59 59 59 58 59 58 58 58 58 58 58 58 58 59 59 59 59 59 54 51 43 61 54 58 59 55 55 55 59 60 55 47 46 42 38 34 27 32 37 43 40
59 59 59 59 59 59 59 59 58 58 58 58 57 57 57 57 57 58 58 58 58 58 58 59 57 47 50 50 55 57 56 57 54 53 51 48 46 43 43 39 32 32 28 30 33 39 38
59 59 59 58 58 58 58 58 58 58 57 57 57 56 56 56 57 57 53 50 46 44 52 46 47 46 51 56 57 54 57 55 51 46 39 41 38 37 41 40 43 37 34 33 34 39 35
58 58 58 58 58 58 58 57 57 57 57 56 56 56 56 56 57 57 50 45 45 47 40 49 49 50 54 54 48 52 57 50 47 37 40 37 35 42 45 46 44 40 33 32 34 36 35
57 58 58 57 57 57 57 57 57 57 56 56 56 55 55 56 56 51 46 46 52 55 41 44 49 48 50 53 47 48 53 51 44 37 37 34 37 45 41 38 40 40 39 32 34 33 33
57 57 57 57 57 57 56 56 56 56 56 55 55 55 55 55 50 46 46 51 51 54 34 38 44 49 51 52 45 54 54 49 45 38 39 39 43 41 40 37 39 33 39 38 34 32 28
56 56 56 56 56 56 56 56 56 56 55 55 55 55 55 54 44 43 49 51 51 49 21 42 44 56 51 47 46 47 52 47 40 39 39 36 37 37 36 40 41 37 42 38 33 31 27
56 56 56 56 56 55 55 55 55 55 55 54 54 54 54 48 45 47 51 51 49 33 24 38 45 43 44 47 46 47 47 49 49 42 40 39 45 44 43 44 45 44 41 37 34 32 25
55 55 55 55 55 55 55 55 55 55 54 54 54 54 51 50 43 50 50 46 32 26 43 37 39 42 40 39 41 43 41 38 36 32 32 37 39 43 46 39 43 41 34 27 23 22 23
55 55 55 55 55 55 54 54 54 54 54 53 53 53 48 49 48 49 47 40 26 37 37 43 42 42 37 41 40 40 37 36 39 38 34 30 29 39 43 42 36 36 35 29 21 21 22
55 55 54 54 54 54 54 54 54 53 53 53 51 41 43 46 49 47 41 27 30 35 40 38 40 35 35 40 39 37 35 35 39 39 31 31 30 40 43 46 45 34 30 38 30 32 26
54 54 54 54 54 53 53 53 53 53 53 53 36 38 42 49 49 44 39 32 35 42 42 41 32 37 32 35 34 36 35 38 38 40 40 36 29 36 39 43 43 39 40 29 29 21 21
53 54 54 54 53 52 52 53 53 53 53 51 37 36 45 50 47 38 30 30 37 44 44 38 35 34 34 31 33 32 33 38 39 38 39 36 32 28 36 35 35 35 32 32 33 31 24
53 53 53 53 52 52 52 52 52 52 52 42 33 32 45 47 34 33 28 35 43 41 43 39 36 33 31 31 29 31 32 36 39 38 33 35 31 20 26 38 39 37 34 33 25 25 27
52 52 52 52 52 51 52 52 52 52 51 34 29 30 43 44 27 26 31 35 38 37 37 37 35 39 39 35 26 32 34 38 38 37 33 34 27 20 22 28 34 29 28 28 29 28 20
52 52 52 52 51 51 51 51 51 51 51 36 30 29 32 35 39 35 29 30 31 37 35 37 35 36 32 30 34 28 30 36 36 37 42 36 25 21 18 22 25 24 26 28 26 17 18
51 51 51 51 51 51 51 51 51 50 49 35 27 24 26 25 27 26 26 29 29 29 34 35 31 30 30 23 26 27 31 30 34 38 34 31 22 23 27 28 27 25 25 27 23 22 16
51 51 51 51 50 51 51 51 50 49 47 30 26 24 24 23 25 23 27 25 27 28 30 28 28 30 30 25 27 23 28 25 26 29 28 25 21 24 19 26 25 22 23 22 24 24 22
50 50 50 50 50 51 50 51 50 49 42 28 26 27 24 27 23 22 22 25 27 29 31 32 29 26 26 29 29 29 28 27 27 25 22 23 21 17 12 15 14 5 13 23 25 27 25
50 50 50 49 50 50 50 50 50 49 41 30 27 25 23 24 24 25 25 26 26 27 26 30 31 27 29 32 31 30 28 27 27 26 28 17 14 10 1 6 -1 14 13 15 18 20 18
50 50 49 49 49 49 49 50 50 49 47 32 28 27 23 19 24 25 24 23 23 24 24 26 28 29 31 28 23 20 19 21 22 24 22 24 15 1 -4 -2 3 13 11 10 11 15 3
50 49 49 49 49 49 49 49 49 49 48 33 30 29 26 21 21 25 22 21 17 15 18 26 30 30 28 26 23 4 5 14 12 16 21 21 17 8 -6 -6 -6 7 4 -0 0 4 4
50 49 48 48 48 48 48 48 48 49 47 35 30 31 29 25 23 21 21 19 22 19 17 20 21 22 25 20 15 3 3 15 3 5 6 8 4 7 3 6 6 0 -3 -3 3 8 1
50 49 48 48 48 48 49 48 47 48 48 37 31 31 31 26 24 26 27 22 23 21 15 19 19 18 18 13 14 11 7 9 7 7 4 6 -0 5 -1 -3 1 7 8 11 12 7 5
49 49 48 48 48 48 48 47 47 48 48 40 29 37 35 29 25 27 27 27 28 28 25 20 18 17 19 13 10 6 1 -2 -2 -2 13 6 6 3 8 6 9 8 12 -1 -0 -1 -2
MSLP
1023.05 1022.86 1022.59 1022.26 1021.84 1021.50 1021.08 1020.79 1020.52 1020.14 1019.64 1019.16 1018.73 1018.29 1017.89 1017.39 1016.95 1016.69 1016.34 1016.15 1015.97 1015.79 1015.60 1015.34 1014.91 1014.58 1014.45 1014.16 1012.87 1011.95 1011.54 1011.47 1011.88 1012.61 1013.03 1013.61 1014.21 1014.65 1014.58 1014.51 1014.69 1014.85 1015.53 1015.90 1016.39 1017.21 1017.72
1023.31 1023.06 1022.78 1022.39 1022.08 1021.69 1021.33 1020.99 1020.65 1020.19 1019.69 1019.11 1018.62 1018.13 1017.82 1017.40 1016.85 1016.41 1016.20 1015.93 1015.53 1015.38 1015.39 1015.37 1015.00 1014.66 1014.49 1013.82 1012.00 1011.96 1011.86 1011.80 1011.94 1012.59 1013.14 1013.52 1013.71 1014.00 1014.34 1014.61 1014.91 1014.83 1015.61 1016.37 1016.81 1016.92 1017.50
1023.43 1023.15 1022.85 1022.56 1022.22 1021.86 1021.46 1021.09 1020.71 1020.22 1019.63 1019.06 1018.63 1018.18 1017.71 1017.19 1016.65 1016.24 1015.94 1015.68 1015.52 1015.26 1014.95 1014.97 1014.94 1014.83 1014.29 1012.84 1011.75 1011.87 1011.88 1011.99 1012.06 1012.22 1013.03 1013.40 1013.56 1014.02 1014.31 1014.83 1015.18 1015.65 1016.22 1016.71 1017.15 1017.40 1017.50
1023.58 1023.28 1022.99 1022.69 1022.37 1021.96 1021.52 1021.07 1020.63 1020.17 1019.64 1019.12 1018.71 1018.27 1017.72 1017.10 1016.64 1016.22 1015.86 1015.41 1015.12 1015.14 1015.09 1014.93 1014.77 1014.78 1013.78 1011.94 1011.77 1011.84 1011.82 1012.11 1012.31 1012.33 1012.50 1012.92 1013.36 1013.99 1014.42 1014.86 1015.38 1015.79 1016.31 1016.93 1016.94 1017.31 1017.48
1023.65 1023.49 1023.15 1022.83 1022.49 1022.11 1021.63 1021.17 1020.69 1020.18 1019.66 1019.19 1018.75 1018.32 1017.79 1017.16 1016.54 1016.14 1015.66 1015.11 1014.66 1014.54 1014.70 1014.69 1014.80 1014.71 1013.35 1011.89 1011.79 1011.41 1011.58 1012.07 1012.57 1012.77 1012.67 1012.85 1013.36 1014.05 1014.58 1014.86 1015.40 1016.01 1016.55 1016.76 1016.74 1016.75 1017.29
1023.79 1023.54 1023.32 1023.04 1022.68 1022.20 1021.72 1021.26 1020.79 1020.21 1019.67 1019.20 1018.70 1018.23 1017.74 1017.16 1016.56 1015.96 1015.33 1014.83 1014.53 1014.40 1014.32 1014.46 1014.30 1014.58 1012.72 1011.74 1011.32 1011.36 1011.62 1011.98 1012.46 1013.13 1013.44 1013.43 1013.53 1013.91 1014.47 1014.73 1014.63 1015.41 1016.17 1016.28 1016.31 1016.47 1017.16
1023.92 1023.60 1023.37 1023.09 1022.74 1022.39 1021.93 1021.40 1020.91 1020.38 1019.81 1019.26 1018.67 1018.10 1017.58 1017.02 1016.46 1015.93 1015.44 1014.94 1015.07 1014.84 1014.33 1013.46 1013.14 1012.69 1011.89 1011.47 1011.21 1011.38 1011.51 1012.03 1012.63 1013.24 1013.64 1013.91 1013.97 1013.16 1013.68 1014.14 1014.26 1014.69 1014.96 1015.62 1015.58 1015.89 1016.54
1024.01 1023.57 1023.31 1023.03 1022.72 1022.39 1021.96 1021.50 1021.01 1020.40 1019.83 1019.26 1018.74 1018.20 1017.61 1016.94 1016.30 1015.74 1015.64 1015.80 1015.94 1016.06 1014.65 1012.79 1012.45 1012.27 1011.84 1011.76 1011.56 1011.34 1011.46 1011.99 1012.52 1013.20 1013.59 1014.13 1013.41 1013.21 1013.32 1013.50 1013.97 1014.31 1014.87 1014.93 1015.46 1015.83 1016.52
1024.03 1023.75 1023.37 1023.05 1022.73 1022.44 1022.06 1021.55 1021.00 1020.40 1019.82 1019.30 1018.82 1018.29 1017.70 1017.07 1016.35 1016.01 1016.16 1015.98 1015.77 1015.52 1015.09 1012.39 1011.70 1011.42 1011.36 1011.66 1011.56 1011.20 1011.53 1011.70 1012.26 1013.04 1013.34 1013.22 1012.79 1012.95 1013.38 1013.44 1013.87 1014.05 1014.38 1015.09 1015.40 1016.02 1016.67
1024.18 1023.83 1023.42 1023.20 1022.80 1022.40 1022.05 1021.49 1020.93 1020.39 1019.87 1019.32 1018.73 1018.17 1017.63 1016.90 1016.61 1016.75 1016.31 1016.00 1015.80 1015.69 1014.98 1012.39 1011.46 1010.66 1010.72 1010.84 1011.16 1010.72 1011.03 1011.61 1012.32 1012.81 1013.18 1013.14 1012.52 1012.63 1012.97 1013.11 1013.46 1013.66 1013.77 1014.41 1015.24 1016.03 1016.33
1024.32 1023.98 1023.56 1023.17 1022.78 1022.43 1021.95 1021.52 1020.91 1020.25 1019.66 1019.10 1018.52 1017.95 1017.55 1017.25 1017.25 1016.78 1016.32 1015.86 1015.68 1015.83 1014.88 1012.10 1011.30 1010.60 1010.77 1011.19 1011.35 1011.10 1011.13 1011.48 1011.96 1012.61 1013.15 1012.71 1012.40 1012.43 1012.47 1011.80 1012.93 1012.84 1013.30 1013.84 1014.65 1015.37 1015.68
1024.29 1024.00 1023.54 1023.20 1022.89 1022.34 1021.92 1021.40 1020.79 1020.14 1019.44 1018.73 1018.13 1017.56 1017.04 1017.02 1017.23 1016.37 1015.91 1015.79 1015.78 1015.97 1013.44 1011.79 1011.31 1011.08 1011.36 1011.41 1011.44 1011.44 1011.44 1011.61 1011.92 1012.43 1012.74 1012.49 1012.13 1011.93 1011.58 1011.67 1012.00 1012.41 1013.12 1013.84 1014.20 1014.87 1014.01
1024.25 1023.98 1023.61 1023.24 1022.85 1022.46 1021.93 1021.44 1020.81 1020.15 1019.33 1018.46 1017.67 1016.94 1016.80 1016.86 1016.53 1016.10 1016.02 1015.90 1015.96 1014.84 1012.43 1012.39 1011.83 1011.73 1011.92 1011.90 1011.80 1011.68 1011.87 1012.01 1012.09 1012.39 1012.16 1011.80 1011.42 1011.19 1011.12 1011.63 1011.93 1012.37 1012.87 1013.34 1013.52 1013.37 1012.25
1024.47 1024.04 1023.82 1023.49 1023.16 1022.67 1022.16 1021.46 1020.74 1020.10 1019.23 1018.22 1017.25 1016.62 1016.37 1016.34 1016.22 1016.08 1016.18 1016.34 1015.83 1013.75 1013.15 1012.64 1012.43 1012.13 1012.14 1012.12 1011.91 1011.88 1012.05 1012.04 1011.83 1012.12 1012.08 1011.77 1010.93 1010.26 1009.92 1010.16 1010.43 1011.23 1011.75 1011.85 1011.73 1011.87 1011.64
1024.38 1024.20 1023.97 1023.60 1023.34 1022.85 1022.26 1021.63 1020.92 1020.12 1019.14 1017.99 1017.07 1016.70 1016.61 1016.12 1016.21 1016.52 1016.86 1016.53 1015.10 1014.20 1013.75 1013.44 1013.01 1012.58 1012.60 1012.56 1012.58 1012.27 1012.13 1011.84 1011.51 1011.53 1012.05 1011.42 1010.69 1009.84 1009.61 1009.43 1010.09 1010.80 1010.83 1010.58 1011.09 1011.21 1011.34
1024.28 1024.20 1023.92 1023.55 1023.29 1022.98 1022.34 1021.60 1020.94 1020.09 1019.06 1018.03 1017.97 1017.62 1016.79 1016.12 1016.21 1016.80 1016.82 1016.06 1014.95 1014.25 1013.86 1013.63 1013.83 1013.54 1013.87 1013.39 1013.63 1013.08 1012.76 1012.26 1011.79 1011.84 1011.73 1011.73 1011.29 1010.60 1010.23 1009.97 1009.94 1010.12 1010.44 1010.93 1010.98 1010.72 1010.39
1024.17 1024.10 1023.89 1023.72 1023.41 1023.05 1022.55 1021.82 1021.07 1020.14 1019.12 1018.30 1018.30 1017.96 1016.85 1016.32 1016.54 1017.19 1017.24 1016.41 1015.23 1014.43 1014.17 1014.49 1014.52 1014.48 1014.48 1014.47 1014.29 1014.11 1013.34 1012.79 1012.66 1012.68 1012.63 1012.62 1012.65 1011.81 1011.11 1010.61 1010.29 1010.90 1010.78 1011.10 1011.00 1010.75 1010.25
1024.13 1024.13 1023.98 1023.78 1023.60 1023.26 1022.65 1021.97 1021.33 1020.47 1019.50 1018.96 1019.45 1018.80 1017.09 1016.65 1017.44 1017.78 1017.56 1016.61 1015.80 1014.98 1014.68 1014.82 1015.32 1015.82 1015.60 1015.60 1015.20 1014.46 1013.98 1013.82 1013.66 1013.70 1013.59 1013.67 1013.38 1013.04 1012.38 1011.26 1011.05 1011.13 1011.48 1012.21 1012.56 1011.58 1011.09
1024.09 1024.08 1024.12 1023.97 1023.59 1023.37 1022.81 1022.23 1021.58 1020.87 1020.29 1020.57 1020.56 1019.60 1017.63 1017.27 1017.94 1018.22 1017.80 1017.19 1016.40 1015.74 1015.47 1015.52 1015.99 1015.99 1015.62 1015.63 1015.91 1015.00 1014.67 1014.65 1015.10 1014.95 1014.74 1014.72 1014.28 1013.92 1013.25 1012.69 1012.42 1012.64 1013.57 1013.90 1013.88 1013.19 1012.69
1024.15 1024.15 1024.02 1023.92 1023.75 1023.46 1023.04 1022.52 1021.80 1020.98 1020.30 1020.82 1021.18 1020.81 1019.49 1018.91 1019.04 1018.84 1018.58 1017.72 1017.07 1016.42 1016.26 1016.32 1016.29 1016.17 1016.54 1016.46 1015.98 1015.79 1015.77 1015.34 1015.33 1015.37 1015.30 1015.74 1015.58 1015.71 1015.29 1014.75 1014.53 1014.11 1014.11 1014.40 1014.69 1014.63 1014.16
1024.05 1024.11 1024.09 1023.92 1023.86 1023.52 1023.12 1022.66 1022.10 1021.35 1020.66 1021.16 1021.98 1022.69 1022.38 1021.04 1020.33 1020.26 1019.68 1018.82 1018.18 1017.73 1017.46 1017.21 1017.04 1017.56 1017.65 1017.53 1017.08 1016.45 1016.08 1015.99 1015.83 1015.92 1016.07 1016.36 1016.38 1016.35 1016.06 1015.94 1015.78 1015.45 1014.97 1014.76 1015.23 1015.16 1015.07
1024.18 1024.15 1024.02 1023.97 1023.97 1023.69 1023.40 1022.95 1022.42 1021.96 1021.22 1022.21 1023.33 1023.70 1022.95 1022.27 1021.40 1020.87 1020.38 1019.88 1019.50 1019.15 1019.00 1018.51 1018.41 1018.52 1018.75 1018.85 1018.56 1018.26 1017.85 1017.60 1017.25 1016.95 1016.99 1017.33 1017.15 1017.37 1017.11 1017.03 1016.87 1016.56 1016.34 1016.10 1015.64 1015.62 1015.33
1024.08 1024.21 1024.18 1024.08 1024.02 1023.82 1023.70 1023.34 1022.98 1022.66 1022.26 1023.29 1024.22 1024.33 1024.14 1022.84 1022.18 1021.82 1021.71 1021.26 1020.75 1020.35 1019.68 1019.47 1019.43 1019.62 1019.52 1019.46 1019.38 1019.04 1018.85 1018.54 1018.34 1018.30 1018.20 1018.42 1018.61 1019.15 1018.60 1018.90 1018.83 1018.26 1017.73 1016.96 1016.27 1015.82 1015.86
1023.98 1024.16 1024.24 1024.15 1023.92 1023.89 1023.74 1023.65 1023.41 1023.18 1023.23 1024.03 1024.76 1024.75 1024.82 1023.84 1023.14 1022.70 1022.47 1022.19 1021.88 1021.64 1021.07 1020.33 1020.10 1020.16 1020.14 1019.76 1019.28 1018.70 1018.44 1018.11 1017.99 1017.71 1018.13 1018.86 1019.82 1020.83 1021.38 1021.29 1020.52 1018.79 1018.41 1018.41 1018.31 1017.76 1017.56
1023.85 1024.10 1024.25 1024.47 1024.36 1024.24 1024.01 1023.91 1023.68 1023.58 1023.54 1024.03 1024.67 1024.92 1025.13 1024.59 1023.93 1023.19 1022.97 1022.79 1022.45 1022.23 1021.77 1021.24 1020.98 1021.03 1020.74 1020.51 1020.21 1019.60 1019.13 1018.82 1018.10 1018.17 1018.43 1019.13 1020.72 1022.19 1023.83 1023.66 1021.79 1020.88 1020.53 1021.15 1020.79 1019.91 1020.16
1023.96 1024.17 1024.26 1024.25 1024.45 1024.34 1024.29 1024.15 1023.93 1023.79 1023.77 1024.22 1024.60 1024.86 1025.20 1025.24 1024.40 1024.01 1023.66 1023.49 1023.51 1023.42 1022.87 1022.05 1021.64 1021.33 1021.23 1021.15 1020.98 1021.20 1021.11 1020.57 1020.22 1019.69 1019.66 1020.19 1021.05 1022.73 1024.65 1024.90 1023.87 1022.52 1022.70 1022.88 1023.14 1022.66 1022.48
1023.39 1023.92 1024.13 1024.16 1024.38 1024.44 1024.43 1024.37 1024.13 1023.81 1023.90 1024.34 1024.77 1024.74 1024.84 1025.05 1024.57 1024.39 1024.21 1024.14 1024.18 1024.21 1024.05 1023.42 1023.16 1022.42 1022.13 1022.29 1022.36 1022.70 1022.78 1022.53 1022.74 1022.54 1022.09 1022.40 1022.82 1023.66 1023.99 1024.15 1023.67 1023.82 1024.32 1024.52 1024.67 1024.64 1023.93
1023.29 1023.76 1023.91 1023.93 1024.19 1024.11 1024.31 1024.39 1024.12 1023.82 1023.88 1024.38 1024.78 1024.77 1024.99 1024.89 1024.72 1024.53 1024.33 1024.39 1024.45 1024.62 1024.74 1024.26 1023.99 1023.89 1023.63 1023.73 1024.11 1024.42 1024.52 1024.46 1024.63 1024.07 1023.82 1024.31 1024.47 1024.62 1024.41 1024.40 1023.91 1023.73 1025.06 1025.66 1025.02 1024.84 1024.93
1022.88 1023.56 1023.99 1023.98 1023.97 1023.94 1024.13 1024.22 1024.05 1023.80 1023.87 1024.21 1024.80 1024.55 1024.82 1025.12 1025.03 1024.83 1024.54 1024.49 1024.52 1024.57 1024.84 1024.87 1025.18 1025.08 1025.14 1025.36 1025.63 1025.98 1026.10 1026.03 1025.91 1025.83 1024.92 1025.41 1025.20 1025.22 1025.04 1023.90 1023.55 1023.99 1024.35 1024.95 1025.46 1025.66 1025.37
Wind_Speed
14 14 15 15 16 16 16 16 16 17 17 17 17 18 18 17 16 14 14 13 13 13 11 10 10 10 4 4 7 5 3 3 6 6 7 6 5 4 6 6 6 5 3 7 8 7 9
13 14 15 15 16 16 17 17 17 17 18 18 17 17 18 18 17 14 13 13 12 11 10 10 9 10 2 4 3 3 5 4 6 5 6 5 5 6 4 3 8 4 6 6 5 9 7
13 13 14 15 16 16 17 17 18 18 18 19 19 19 18 18 16 15 13 12 13 9 7 7 9 4 3 12 2 3 2 2 4 7 6 4 4 4 1 2 1 6 6 2 5 7 6
12 13 14 15 15 16 17 17 18 19 19 19 20 19 19 17 15 14 14 13 12 10 9 7 8 3 7 4 1 5 2 1 2 5 5 8 5 3 2 5 4 4 4 4 4 8 4
11 12 14 15 16 17 18 18 18 19 20 20 20 20 19 18 17 16 16 15 11 8 8 7 4 1 10 7 2 3 5 5 4 1 2 6 6 3 3 4 3 3 3 5 3 8 5
11 12 13 15 16 17 18 18 19 19 20 20 20 20 20 19 18 18 20 12 5 1 3 4 6 2 5 3 2 2 2 7 4 4 2 2 4 5 3 4 10 6 4 4 5 6 4
11 12 14 15 16 17 18 19 20 20 20 20 21 20 20 19 18 19 9 4 5 2 4 8 5 4 2 4 1 3 4 5 4 3 6 3 4 16 12 10 5 6 6 7 4 6 6
10 11 13 15 16 18 18 19 20 20 21 21 21 21 21 20 19 17 1 3 1 2 11 11 15 10 6 2 3 3 7 6 5 6 5 3 14 11 7 10 11 5 5 8 1 3 6
9 11 13 15 16 18 19 20 21 22 22 22 22 22 22 22 21 4 2 1 3 2 6 8 5 5 6 8 5 5 9 4 4 6 7 7 4 10 6 4 9 10 15 5 5 3 1
10 11 13 15 17 18 19 20 21 22 23 23 23 21 21 22 3 4 2 4 4 2 5 6 3 5 4 6 4 5 7 4 1 8 5 6 5 6 9 10 11 16 7 7 6 5 8
10 11 13 14 17 18 19 21 22 22 23 23 22 22 20 12 4 2 3 5 4 2 7 2 1 1 1 5 2 2 1 1 5 5 4 5 5 6 8 19 9 12 9 10 6 8 2
8 11 12 14 16 18 20 21 22 23 24 24 23 23 17 2 1 5 4 4 2 2 8 2 2 1 2 3 3 2 1 3 1 3 4 6 2 4 8 5 13 3 3 3 4 4 12
7 10 12 14 16 18 19 21 23 25 25 26 26 23 8 1 3 2 3 2 2 4 3 4 2 2 1 2 3 6 4 4 5 3 7 4 10 5 5 4 1 8 5 4 5 6 8
8 10 12 15 17 19 21 23 24 26 28 28 27 18 3 3 3 2 2 1 3 1 2 3 3 2 3 3 5 2 2 4 7 4 3 5 7 11 8 16 10 14 11 7 7 5 5
6 10 12 14 17 19 21 23 25 26 28 28 18 4 2 3 5 3 3 2 4 2 3 6 8 2 2 2 4 3 5 5 5 12 8 5 7 1 4 6 10 4 11 14 11 12 6
5 8 11 13 15 18 19 22 24 26 28 24 3 4 3 3 5 3 3 5 4 2 4 2 3 2 9 4 7 7 4 1 4 2 3 2 7 1 4 2 4 12 4 3 5 6 9
4 7 10 13 15 17 19 22 25 27 30 19 4 5 3 2 3 3 3 6 4 5 3 4 5 6 4 5 6 6 5 5 6 5 5 1 3 5 2 4 6 4 2 4 4 5 3
4 6 10 12 14 17 19 21 24 26 28 9 3 3 3 2 3 1 2 3 5 4 1 2 3 3 5 7 7 5 4 4 7 4 5 3 3 3 8 8 1 1 4 2 5 6 4
2 6 8 11 14 16 19 22 24 25 22 2 2 3 4 2 1 2 5 5 3 3 4 5 1 5 4 5 6 8 2 3 7 10 5 5 3 6 9 3 5 4 3 1 6 3 6
2 5 7 10 13 15 18 21 23 25 20 4 2 4 5 4 1 3 3 5 4 3 2 5 4 2 6 7 1 3 9 5 7 5 10 4 1 5 9 8 4 11 1 2 4 4 6
2 3 5 8 11 13 17 19 23 26 17 3 4 0 2 4 4 5 3 3 5 5 6 6 3 7 5 4 5 7 5 3 2 6 2 2 6 4 10 12 13 14 17 12 9 9 9
2 2 3 8 9 12 16 17 21 24 13 6 3 4 4 3 3 4 5 2 3 5 6 3 4 4 3 4 7 12 12 2 5 3 3 0 10 8 9 11 11 15 11 10 13 12 13
5 2 4 6 7 10 13 15 18 18 11 4 2 2 2 4 4 3 3 5 5 6 2 4 5 5 10 9 6 7 5 6 7 3 3 3 3 2 13 3 5 6 9 16 11 9 8
6 5 4 4 6 9 11 14 15 15 8 3 1 2 3 4 3 1 5 3 4 7 6 6 6 4 2 7 8 8 9 14 14 17 12 5 2 1 4 3 8 7 3 1 3 9 6
7 6 4 3 6 7 9 11 13 14 10 4 1 3 2 3 2 3 6 3 7 7 4 4 4 3 5 5 4 5 4 3 4 5 4 12 3 2 3 5 7 10 4 2 3 7 3
7 6 4 3 4 5 7 8 10 12 11 4 2 2 2 0 2 3 3 3 3 4 7 3 4 5 5 2 3 2 4 4 5 7 6 4 4 4 3 3 6 8 3 1 0 5 2
11 8 5 3 1 5 7 6 7 9 10 3 1 1 1 2 3 2 1 2 3 2 3 4 6 6 4 3 2 0 4 3 3 4 4 3 3 6 5 6 7 4 4 2 4 5 3
12 9 6 4 1 3 7 6 4 6 7 4 1 1 1 2 4 2 2 2 3 0 1 4 4 3 3 2 2 3 2 2 2 4 3 2 1 3 1 1 6 7 3 3 1 2 3
13 9 6 4 2 3 4 5 4 6 8 4 1 1 2 2 3 1 2 1 1 1 2 1 1 2 1 1 2 2 3 3 3 5 2 3 6 4 6 6 1 6 4 2 4 5 4
Wind_Direction
18 14 9 7 5 4 2 0 358 353 351 351 349 347 341 335 328 323 318 317 311 307 306 306 296 322 348 242 249 308 1 18 148 141 162 154 145 167 184 188 160 197 141 173 156 180 218
16 11 7 5 2 2 0 359 356 353 350 350 351 346 340 336 330 324 313 311 309 302 302 294 296 322 229 257 218 8 348 114 151 140 173 142 181 193 200 202 174 184 140 142 166 159 155
12 10 7 5 1 359 358 357 354 352 351 350 349 345 343 333 329 324 316 307 309 302 291 283 295 301 274 245 204 338 319 221 178 156 143 177 119 146 65 121 118 120 101 128 180 183 171
7 9 6 1 359 357 357 356 353 352 351 351 347 344 343 340 339 332 320 311 302 294 279 278 281 281 257 255 278 297 199 357 87 145 136 147 116 112 70 136 70 92 98 157 187 169 172
5 3 3 0 358 355 354 354 352 351 349 349 348 345 342 340 340 333 324 312 295 272 253 251 257 228 267 316 248 225 172 152 105 87 85 142 120 171 113 155 133 57 196 197 226 196 144
1 3 0 358 356 355 353 353 350 349 348 346 346 345 341 338 334 332 326 311 281 291 234 200 260 239 268 249 194 137 144 139 129 114 91 161 151 163 179 194 213 179 211 230 216 195 175
359 360 357 357 355 353 351 351 349 347 347 344 344 343 340 336 333 334 343 3 8 317 239 210 197 230 289 309 73 204 155 129 100 112 171 239 187 206 193 204 215 180 184 199 227 179 151
354 359 358 356 354 352 350 350 347 345 344 343 341 340 338 334 329 325 39 64 70 237 298 235 246 251 272 335 304 230 135 169 153 194 147 132 230 216 209 203 220 191 207 228 192 158 174
345 355 356 355 354 351 349 349 346 345 344 342 340 339 337 332 323 11 352 107 312 311 271 283 203 217 205 161 228 241 163 169 166 172 197 190 212 187 199 177 225 237 232 203 215 129 259
346 350 358 354 350 351 348 348 346 344 342 340 338 337 336 333 4 323 314 329 337 302 297 274 238 272 144 135 246 212 194 161 188 205 189 239 216 189 200 222 191 239 190 187 172 175 241
347 348 356 353 348 352 349 347 345 343 341 338 334 333 331 330 284 313 301 326 317 26 328 71 56 24 89 161 355 42 146 31 193 198 169 232 191 184 202 222 182 245 179 198 195 215 171
345 346 355 350 348 351 349 347 343 341 339 335 333 329 328 12 216 248 308 326 64 7 259 355 47 58 113 258 329 53 72 52 180 217 213 243 229 193 226 180 198 179 100 348 152 198 234
337 344 351 349 351 349 350 347 344 342 338 335 331 326 313 217 224 320 323 47 50 195 32 343 337 116 239 252 262 200 192 188 205 208 216 187 220 208 186 173 261 191 160 231 228 199 241
337 349 357 349 351 350 350 350 348 343 339 336 329 325 319 202 295 315 37 163 208 310 313 353 334 210 186 203 241 240 223 241 222 216 242 221 267 188 197 204 189 199 200 218 258 211 234
340 353 351 354 354 351 353 350 350 345 340 335 336 338 338 273 210 26 88 198 248 330 328 341 310 359 315 277 264 263 229 228 236 193 211 220 242 200 167 230 196 175 213 231 256 243 260
353 348 350 355 353 352 354 354 351 347 344 342 360 345 309 357 122 69 203 238 259 266 324 287 283 61 288 344 334 335 303 269 292 5 285 308 264 228 296 78 248 205 159 185 199 240 244
344 346 350 354 360 357 356 357 355 353 349 343 26 22 279 26 59 43 225 237 290 292 7 347 350 300 300 325 319 301 275 307 6 350 343 75 257 285 26 208 224 146 265 244 275 239 281
343 343 354 360 4 2 359 360 357 357 351 36 3 348 299 49 53 322 263 281 327 315 287 136 115 268 341 339 286 260 262 267 4 331 326 33 317 281 232 262 299 9 220 253 280 302 320
337 11 356 4 9 4 4 3 359 356 358 2 349 273 317 66 193 292 296 299 284 315 356 28 354 312 300 278 271 270 29 36 4 326 0 354 315 327 329 351 28 45 38 300 294 303 265
64 15 4 13 15 6 8 4 2 358 356 88 30 351 331 29 19 302 341 276 296 336 333 351 250 328 27 325 281 282 327 353 338 334 316 305 262 224 257 264 288 289 250 159 183 213 269
99 30 19 22 18 9 14 9 6 0 2 82 22 49 174 312 338 334 308 294 307 348 1 33 5 36 341 244 302 266 249 299 313 287 328 226 255 248 250 254 263 263 282 276 235 246 243
142 85 38 33 17 16 17 13 13 10 7 74 54 17 357 284 290 328 358 344 344 323 356 292 304 337 330 262 271 290 293 240 239 321 215 268 269 277 268 268 255 256 255 271 270 254 251
160 120 76 47 26 29 22 20 19 26 34 66 345 23 79 297 347 20 352 338 340 337 342 21 24 331 304 320 331 290 263 263 258 258 255 228 235 250 268 328 346 316 217 234 245 234 230
162 146 91 66 47 44 32 25 25 42 64 114 173 104 32 295 352 10 352 322 319 315 278 282 304 256 301 299 285 269 252 249 251 246 230 235 132 79 262 21 260 256 286 294 275 274 296
168 147 106 65 51 44 37 31 32 27 52 83 116 81 80 292 303 315 349 322 325 315 293 294 337 345 315 301 289 296 293 296 270 255 233 212 171 259 178 215 308 326 324 336 148 287 177
173 157 131 99 67 40 23 26 29 26 43 83 87 119 99 46 260 296 321 344 339 321 329 312 350 327 358 278 284 223 259 296 312 337 35 70 123 138 87 184 228 240 314 53 153 291 333
175 170 156 142 59 9 22 12 18 23 43 89 103 127 107 279 289 13 350 287 330 333 275 309 334 333 359 332 295 256 270 323 291 297 329 352 12 223 236 256 274 275 269 323 111 273 294
178 176 173 168 217 352 344 330 1 12 29 101 284 51 119 250 283 299 324 343 316 53 261 306 339 344 345 17 328 335 312 318 295 235 189 206 211 272 8 252 261 188 118 226 200 220 249
179 181 195 195 223 305 352 32 18 20 24 101 25 177 123 242 252 311 305 351 304 259 259 328 237 276 24 352 16 10 313 340 170 278 330 262 193 220 194 243 333 205 235 184 165 212 257